Weather reports worldwide

Advertisment
Gottfrieding, Germany (10872): temperature & dewpoint: 07.07.2020 07:00:00 - 13.07.2020 07:00:00 (CEST)Gottfrieding, Germany (10872): temperature 5cm & temperature -5cm: 07.07.2020 07:00:00 - 13.07.2020 07:00:00 (CEST)Gottfrieding, Germany (10872): temperature -20cm & temperature -100cm: 07.07.2020 07:00:00 - 13.07.2020 07:00:00 (CEST)Gottfrieding, Germany (10872): wind speed & gusts: 07.07.2020 07:00:00 - 13.07.2020 07:00:00 (CEST)Gottfrieding, Germany (10872): wind direction: 07.07.2020 07:00:00 - 13.07.2020 07:00:00 (CEST)Gottfrieding, Germany (10872): reduced air pressure: 07.07.2020 07:00:00 - 13.07.2020 07:00:00 (CEST)Gottfrieding, Germany (10872): visibility: 07.07.2020 07:00:00 - 13.07.2020 07:00:00 (CEST)Gottfrieding, Germany (10872): sunshine duration: 07.07.2020 07:00:00 - 13.07.2020 07:00:00 (CEST)Gottfrieding, Germany (10872): precipitation: 07.07.2020 07:00:00 - 13.07.2020 07:00:00 (CEST)
Date & Time tt [°C] td [°C] tt 5cm [°C] tt -5cm [°C] tt -20cm [°C] tt -100cm [°C] ff [km/h] ff [kn] fx [km/h] fx [kn] dd ppp [hPa] vv [km] sd [min] rr [mm]
13.07.2020 07:00:00 12,0 10,0 12,3 13,9 19,0 18,2 2 1 5 3 E 1024,6 24 60 0,0
13.07.2020 06:00:00 7,2 6,9 6,3 14,1 19,3 18,2 3 1 5 3 ENE 1025,3 13 9 0,0
13.07.2020 05:00:00 7,9 7,9 6,3 14,5 19,6 18,2 3 2 4 2 E 1025,2 0,2 0 0,0
13.07.2020 04:00:00 8,2 8,2 6,6 15,1 19,9 18,2 4 2 5 3 S 1025,5 5 0 0,0
13.07.2020 03:00:00 8,6 8,6 6,8 15,7 20,2 18,2 2 1 4 2 NE 1025,7 8 0 0,0
13.07.2020 02:00:00 9,2 9,2 7,5 16,3 20,5 18,2 4 2 5 3 SE 1025,7 10 0 0,0
13.07.2020 01:00:00 9,7 9,4 8,0 17,1 20,8 18,2 0 0 3 2 N 1025,8 13 0 0,0
13.07.2020 00:00:00 10,7 10,6 8,7 18,0 21,1 18,2 4 2 4 2 S 1025,7 26 0 0,0
12.07.2020 23:00:00 11,6 10,5 9,9 19,1 21,3 18,2 0 0 4 2 N 1025,9 37 0 0,0
12.07.2020 22:00:00 14,1 12,0 11,2 20,4 21,4 18,2 2 1 6 3 SE 1025,3 63 5 0,0
12.07.2020 21:00:00 16,4 11,7 14,6 21,9 21,4 18,2 5 3 10 6 NNE 1024,7 64 60 0,0
12.07.2020 20:00:00 19,3 10,2 18,7 23,3 21,4 18,2 10 5 17 9 ENE 1024,3 71 60 0,0
12.07.2020 19:00:00 21,0 6,9 23,9 24,0 21,3 18,2 3 2 7 4 SE 1024,2 56 39 0,0
12.07.2020 18:00:00 19,6 10,4 19,5 25,1 21,1 18,2 6 4 14 8 NNE 1024,5 74 30 0,0
12.07.2020 17:00:00 21,7 9,2 23,8 24,5 20,8 18,2 3 1 10 5 N 1024,4 64 15 0,0
12.07.2020 16:00:00 20,1 7,1 21,7 26,0 20,5 18,2 5 3 20 11 E 1024,9 75 39 0,0
12.07.2020 15:00:00 20,6 7,2 24,5 25,3 20,2 18,2 8 4 16 9 NE 1025,0 75 40 0,0
12.07.2020 14:00:00 19,8 8,3 22,0 24,4 19,9 18,2 6 3 17 9 NNE 1025,2 75 15 0,0
12.07.2020 13:00:00 19,2 6,3 21,0 24,8 19,5 18,2 9 5 22 12 E 1025,4 56 47 0,0
12.07.2020 12:00:00 19,7 10,1 24,0 23,2 19,2 18,2 5 3 14 7 E 1025,4 58 58 0,0
12.07.2020 11:00:00 17,8 10,9 21,1 21,1 19,1 18,2 8 5 14 8 ESE 1025,7 59 50 0,0
12.07.2020 10:00:00 15,6 11,7 17,3 19,3 19,1 18,2 4 2 11 6 SE 1026,3 52 38 0,0
12.07.2020 09:00:00 14,6 12,7 16,2 17,5 19,2 18,2 6 3 10 5 SE 1026,3 31 21 0,0
12.07.2020 08:00:00 12,8 12,0 13,9 16,7 19,3 18,2 6 3 9 5 E 1026,3 29 0 0,0
12.07.2020 07:00:00 12,0 12,0 12,7 16,3 19,5 18,2 6 3 9 5 E 1026,1 8 0 0,0
12.07.2020 06:00:00 11,6 11,6 12,1 16,2 19,7 18,2 5 3 6 4 NNE 1025,6 0,4 0 0,0
12.07.2020 05:00:00 11,4 11,4 11,9 16,2 19,9 18,2 4 2 8 4 NE 1025,4 0,2 0 0,0
12.07.2020 04:00:00 11,7 11,7 12,0 16,2 20,1 18,2 5 3 8 5 ENE 1025,1 0,2 0 0,0
12.07.2020 03:00:00 11,1 11,1 11,4 16,1 20,4 18,2 3 2 5 3 ESE 1025,3 0,4 0 0,0
12.07.2020 02:00:00 10,4 10,4 9,1 16,6 20,7 18,2 3 1 6 4 N 1025,4 0,4 0 0,0
12.07.2020 01:00:00 11,3 11,2 10,1 17,2 20,9 18,2 3 2 7 4 NW 1025,5 13 0 0,0
12.07.2020 00:00:00 11,6 11,4 10,9 18,0 21,2 18,2 6 3 8 5 W 1025,2 22 0 0,0
11.07.2020 23:00:00 13,0 12,8 11,7 18,9 21,3 18,2 6 3 11 6 SSE 1024,9 29 0 0,0
11.07.2020 22:00:00 14,6 12,9 13,4 20,0 21,5 18,2 6 4 12 7 SW 1024,0 52 0 0,0
11.07.2020 21:00:00 15,7 13,8 15,0 21,2 21,5 18,2 7 4 13 7 S 1022,9 63 36 0,0
11.07.2020 20:00:00 16,8 14,1 17,7 22,2 21,5 18,2 7 4 12 6 SE 1022,8 75 49 0,0
11.07.2020 19:00:00 16,9 14,2 18,7 22,4 21,4 18,1 5 3 20 11 ESE 1022,0 52 11 2,1
11.07.2020 18:00:00 19,5 10,6 21,3 23,5 21,3 18,1 6 3 21 12 N 1021,4 62 26 0,0
11.07.2020 17:00:00 20,0 12,3 22,0 23,6 21,1 18,1 14 7 26 14 N 1021,3 75 44 0,0
11.07.2020 16:00:00 18,7 11,6 20,1 23,3 21,0 18,1 13 7 27 14 N 1021,5 65 30 0,0
11.07.2020 15:00:00 18,7 12,6 22,5 22,4 20,9 18,1 16 9 26 14 N 1021,5 71 24 0,0
11.07.2020 14:00:00 17,5 13,0 19,5 21,5 20,9 18,1 13 7 22 12 NNW 1021,3 54 6 0,0
11.07.2020 13:00:00 16,5 13,7 19,0 20,1 20,9 18,1 9 5 20 11 NNW 1021,2 48 0 0,0
11.07.2020 12:00:00 15,3 13,9 15,6 19,4 21,1 18,1 8 5 13 7 NW 1021,1 44 0 0,3
11.07.2020 11:00:00 14,7 14,1 15,1 18,5 21,3 18,1 6 3 20 11 NW 1020,7 6 0 4,2
11.07.2020 10:00:00 15,0 14,5 15,2 19,0 21,5 18,1 5 3 12 7 NNW 1019,9 10 0 3,8
11.07.2020 09:00:00 15,3 14,6 15,5 19,1 21,7 18,1 8 4 15 8 W 1019,4 25 0 0,7
11.07.2020 08:00:00 15,3 14,7 15,4 19,2 22,0 18,0 8 4 10 5 W 1019,0 27 0 0,4
11.07.2020 07:00:00 15,1 14,3 14,9 19,3 22,2 18,0 7 4 13 7 W 1018,2 22 0 2,3
11.07.2020 06:00:00 15,8 15,3 15,6 19,8 22,4 18,0 9 5 15 8 W 1017,7 9 0 0,8
11.07.2020 05:00:00 16,4 15,9 16,1 20,2 22,7 18,0 11 6 16 9 WSW 1017,4 12 0 1,1
11.07.2020 04:00:00 16,4 15,8 16,1 20,6 22,9 18,0 11 6 16 8 WSW 1016,9 22 0 0,1
11.07.2020 03:00:00 16,4 15,5 16,0 21,2 23,2 18,0 12 7 18 10 W 1017,2 42 0 0,0
11.07.2020 02:00:00 17,0 16,1 16,6 21,6 23,4 18,0 7 4 13 7 WSW 1017,1 36 0 0,1
11.07.2020 01:00:00 17,7 16,9 17,3 22,3 23,6 18,0 9 5 16 8 WSW 1016,8 32 0 0,1
11.07.2020 00:00:00 18,2 17,6 18,0 23,0 23,9 18,0 7 4 12 6 S 1016,1 28 0 0,7
10.07.2020 23:00:00 18,7 18,3 18,5 23,6 24,1 18,0 3 1 15 8 S 1015,6 27 0 0,9
10.07.2020 22:00:00 19,1 18,0 18,6 24,5 24,3 18,0 11 6 19 10 SSW 1015,9 20 0 0,8
10.07.2020 21:00:00 20,6 16,9 18,8 25,6 24,4 18,0 11 6 18 10 WSW 1014,3 32 0 0,1
10.07.2020 20:00:00 19,8 18,0 19,2 27,0 24,3 18,0 9 5 35 19 SW 1012,4 37 0 2,4
10.07.2020 19:00:00 25,4 16,6 24,7 29,6 24,1 18,0 19 10 32 18 NW 1010,3 53 20 0,0
10.07.2020 18:00:00 27,7 17,5 29,5 30,5 23,8 18,0 10 5 47 25 WNW 1009,2 73 49 0,0
10.07.2020 17:00:00 30,5 15,0 31,5 31,3 23,4 18,0 23 12 37 20 SW 1008,0 53 50 0,0
10.07.2020 16:00:00 30,8 15,2 32,6 31,6 23,0 18,0 21 11 35 19 WSW 1008,8 42 60 0,0
10.07.2020 15:00:00 30,1 14,5 31,7 31,1 22,5 18,0 16 9 31 17 WSW 1009,2 40 60 0,0
10.07.2020 14:00:00 30,0 14,6 32,2 30,5 22,0 18,0 15 8 34 18 WSW 1009,5 60 60 0,0
10.07.2020 13:00:00 29,6 15,5 31,7 29,3 21,6 18,0 17 9 32 17 WSW 1010,0 60 60 0,0
10.07.2020 12:00:00 29,3 15,2 31,7 27,9 21,3 18,0 16 8 26 14 SW 1010,2 59 60 0,0
10.07.2020 11:00:00 28,4 16,0 31,7 25,8 21,1 17,9 6 4 14 8 S 1010,5 62 60 0,0
10.07.2020 10:00:00 26,1 17,2 28,7 23,4 21,0 17,9 5 3 11 6 E 1011,2 57 60 0,0
10.07.2020 09:00:00 22,0 15,9 23,6 21,0 21,1 17,9 6 3 10 5 ENE 1012,3 55 60 0,0
10.07.2020 08:00:00 18,4 15,0 19,9 19,3 21,3 17,9 5 3 7 4 NE 1013,0 41 60 0,0
10.07.2020 07:00:00 15,9 13,9 17,3 18,4 21,6 17,9 3 2 5 3 S 1013,8 26 60 0,0
10.07.2020 06:00:00 11,9 11,8 10,8 18,5 21,9 17,9 2 1 4 2 W 1014,4 29 11 0,0
10.07.2020 05:00:00 11,6 11,4 9,7 19,0 22,1 17,9 2 1 6 3 N 1014,3 26 0 0,0
10.07.2020 04:00:00 12,8 12,5 10,9 19,6 22,4 17,9 3 2 5 3 S 1014,3 30 0 0,0
10.07.2020 03:00:00 13,3 12,9 11,4 20,3 22,7 17,9 3 2 4 2 W 1014,4 32 0 0,0
10.07.2020 02:00:00 14,0 13,4 12,0 21,0 23,0 17,9 3 2 4 2 ESE 1014,4 39 0 0,0
10.07.2020 01:00:00 14,8 13,8 12,8 21,9 23,2 17,9 0 0 4 2 N 1014,6 57 0 0,0
10.07.2020 00:00:00 15,9 14,2 13,9 22,8 23,4 17,9 2 1 9 5 WNW 1014,4 53 0 0,0
09.07.2020 23:00:00 16,6 14,5 14,6 23,9 23,6 17,9 2 1 6 4 WSW 1014,3 48 0 0,0
09.07.2020 22:00:00 18,9 16,2 15,9 25,4 23,6 17,9 0 0 6 3 N 1013,7 45 3 0,0
09.07.2020 21:00:00 22,9 16,8 19,7 27,3 23,5 17,9 0 0 6 3 N 1012,9 50 60 0,0
09.07.2020 20:00:00 27,2 15,7 25,8 28,7 23,3 17,9 4 2 13 7 WSW 1012,3 61 60 0,0
09.07.2020 19:00:00 27,1 14,7 27,9 29,7 23,0 17,9 7 4 17 9 W 1012,5 48 60 0,0
09.07.2020 18:00:00 27,6 14,5 29,5 30,3 22,7 17,9 7 4 23 12 W 1012,8 75 60 0,0
09.07.2020 17:00:00 27,3 13,8 30,1 30,1 22,3 17,9 9 5 20 11 W 1013,5 53 58 0,0
09.07.2020 16:00:00 26,2 15,5 28,9 29,5 21,9 17,9 11 6 26 14 W 1014,5 75 49 0,0
09.07.2020 15:00:00 25,7 12,7 28,7 29,2 21,5 17,9 18 10 31 17 WSW 1015,1 46 56 0,0
09.07.2020 14:00:00 24,8 13,8 27,5 27,7 21,2 17,9 15 8 29 15 SW 1015,8 55 22 0,0
09.07.2020 13:00:00 24,2 14,8 25,8 27,4 20,8 17,9 14 7 29 16 WSW 1016,2 57 29 0,0
09.07.2020 12:00:00 24,1 14,4 26,0 26,6 20,4 17,9 14 8 24 13 W 1016,4 65 58 0,0
09.07.2020 11:00:00 23,8 14,7 27,1 24,9 20,2 17,9 8 5 17 9 WNW 1016,8 43 60 0,0
09.07.2020 10:00:00 21,7 14,3 24,3 22,3 20,2 17,9 6 3 12 7 W 1017,4 70 59 0,0
09.07.2020 09:00:00 19,4 13,2 21,5 20,0 20,2 17,9 4 2 8 4 SSE 1017,7 46 43 0,0
09.07.2020 08:00:00 16,8 12,9 18,3 18,6 20,4 17,9 5 3 7 4 E 1018,2 44 31 0,0
09.07.2020 07:00:00 14,2 13,7 14,9 18,1 20,6 17,9 0 0 4 2 N 1018,4 33 2 0,0
09.07.2020 06:00:00 12,8 12,3 11,9 18,4 20,7 17,9 0 0 3 2 N 1018,5 33 0 0,0
09.07.2020 05:00:00 13,6 13,0 12,5 19,0 20,9 17,9 3 2 4 2 E 1018,2 33 0 0,0
09.07.2020 04:00:00 14,7 13,7 14,5 19,5 21,1 17,9 3 2 5 3 N 1018,3 46 0 0,0
09.07.2020 03:00:00 15,0 13,7 15,0 19,8 21,2 17,9 3 1 8 4 ENE 1018,4 46 0 0,0
09.07.2020 02:00:00 14,8 13,6 14,9 20,1 21,4 17,9 5 3 6 3 E 1019,0 46 0 0,0
09.07.2020 01:00:00 15,2 13,9 15,0 20,5 21,5 17,9 4 2 5 3 ESE 1018,8 51 0 0,0
09.07.2020 00:00:00 16,0 13,7 15,8 21,0 21,7 17,9 3 1 6 3 NE 1018,8 51 0 0,0
08.07.2020 23:00:00 16,3 12,8 16,0 21,5 21,8 17,9 5 3 8 4 E 1018,5 54 0 0,0
08.07.2020 22:00:00 16,6 12,5 16,6 22,1 21,9 17,9 5 3 13 7 NE 1018,0 62 0 0,0
08.07.2020 21:00:00 17,7 12,4 17,5 22,9 21,9 17,9 6 3 10 6 ENE 1017,0 63 0 0,0
08.07.2020 20:00:00 18,6 13,0 18,5 23,8 21,9 17,9 6 3 18 10 NNE 1016,8 56 0 0,0
08.07.2020 19:00:00 20,2 12,0 20,5 24,8 21,8 17,9 10 5 28 15 N 1016,1 22 0 0,0
08.07.2020 18:00:00 21,8 12,1 22,6 25,7 21,6 17,9 22 12 36 19 NNW 1015,4 54 0 0,0
08.07.2020 17:00:00 23,0 13,0 24,2 26,5 21,3 17,9 13 7 24 13 W 1015,0 67 1 0,0
08.07.2020 16:00:00 22,6 11,5 23,8 27,1 20,9 17,9 21 11 32 18 W 1015,0 56 17 0,0
08.07.2020 15:00:00 22,7 11,5 24,3 27,4 20,4 17,9 21 11 35 19 W 1015,0 75 37 0,0
08.07.2020 14:00:00 22,4 9,9 24,6 27,2 20,0 17,9 24 13 38 20 W 1015,5 73 60 0,0
08.07.2020 13:00:00 22,2 9,7 25,3 25,6 19,6 17,9 20 11 31 17 WSW 1015,9 75 58 0,0
08.07.2020 12:00:00 21,7 10,3 24,6 23,8 19,4 17,9 15 8 31 17 WSW 1016,0 39 60 0,0
08.07.2020 11:00:00 20,7 10,4 23,0 21,8 19,2 17,9 16 9 27 15 W 1016,5 59 56 0,0
08.07.2020 10:00:00 17,8 12,2 19,8 19,7 19,2 17,9 8 5 12 6 W 1017,1 54 22 0,0
08.07.2020 09:00:00 15,9 11,2 18,5 17,7 19,3 17,9 5 3 8 5 WSW 1017,4 51 38 0,0
08.07.2020 08:00:00 12,1 9,4 13,4 16,2 19,5 17,9 3 1 4 2 NNW 1018,1 52 12 0,0
08.07.2020 07:00:00 10,2 8,8 10,2 15,5 19,8 17,9 0 0 3 2 N 1018,5 30 15 0,0
08.07.2020 06:00:00 8,4 8,1 7,9 15,6 20,1 17,9 0 0 6 3 N 1018,8 33 0 0,0
08.07.2020 05:00:00 8,5 8,2 7,5 15,9 20,4 17,9 3 2 6 3 SW 1018,6 37 0 0,0
08.07.2020 04:00:00 8,3 7,8 6,5 16,3 20,7 17,9 4 2 7 4 WSW 1019,0 42 0 0,0
08.07.2020 03:00:00 8,3 7,4 6,8 16,9 21,0 17,9 5 3 9 5 WSW 1019,2 48 0 0,0
08.07.2020 02:00:00 8,3 7,3 7,5 17,6 21,3 17,9 8 4 8 5 NW 1019,4 48 0 0,0
08.07.2020 01:00:00 9,0 8,1 7,2 18,4 21,6 17,9 3 2 7 4 W 1019,5 57 0 0,0
08.07.2020 00:00:00 10,0 9,2 8,0 19,3 21,9 17,9 2 1 6 3 WSW 1019,5 59 0 0,0
07.07.2020 23:00:00 11,4 10,0 8,9 20,5 22,1 17,9 0 0 4 2 N 1019,1 55 0 0,0
07.07.2020 22:00:00 13,1 10,4 10,2 22,0 22,2 17,9 0 0 4 2 N 1018,8 64 3 0,0
07.07.2020 21:00:00 17,5 9,7 14,0 23,7 22,2 18,0 3 2 8 4 N 1017,8 54 60 0,0
07.07.2020 20:00:00 19,3 10,7 19,2 25,0 22,1 18,0 5 3 11 6 WNW 1017,6 61 50 0,0
07.07.2020 19:00:00 18,8 10,2 19,7 26,0 21,9 18,0 5 3 10 5 W 1018,0 74 20 0,0
07.07.2020 18:00:00 19,4 7,8 20,3 26,9 21,6 18,0 8 4 12 6 N 1018,1 75 26 0,0
07.07.2020 17:00:00 19,1 7,1 20,6 28,1 21,2 18,0 8 4 17 9 NNW 1018,8 64 40 0,0
07.07.2020 16:00:00 19,5 6,4 24,3 27,3 20,8 18,0 9 5 24 13 NNW 1019,3 72 43 0,0
07.07.2020 15:00:00 19,4 7,9 23,0 26,7 20,4 18,0 8 5 20 11 W 1019,6 53 20 0,0
07.07.2020 14:00:00 19,2 8,8 23,8 27,0 19,9 17,9 14 8 25 13 W 1019,9 55 38 0,0
07.07.2020 13:00:00 17,8 6,5 20,8 26,4 19,5 17,9 13 7 19 11 WSW 1020,4 66 49 0,0
07.07.2020 12:00:00 17,9 8,0 22,5 24,1 19,1 17,9 9 5 22 12 WSW 1020,7 70 58 0,0
07.07.2020 11:00:00 16,6 7,9 19,9 21,6 19,0 17,9 8 5 20 11 W 1021,4 75 60 0,0
07.07.2020 10:00:00 15,6 6,7 18,4 19,1 19,0 17,9 8 4 17 9 WSW 1021,6 72 59 0,0
07.07.2020 09:00:00 14,4 7,5 16,4 17,0 19,1 17,9 8 4 15 8 WSW 1022,1 70 60 0,0
07.07.2020 08:00:00 12,6 8,1 14,0 15,4 19,3 17,9 10 6 14 8 W 1022,5 63 60 0,0
07.07.2020 07:00:00 10,4 8,6 11,2 14,7 19,6 17,9 9 5 14 7 WSW 1022,9 37 60 0,0

tt = temperature
td = dewpoint
tt 5cm = temperature 5cm
tt -5cm = temperature -5cm
tt -20cm = temperature -20cm
tt -100cm = temperature -100cm
ff = wind speed
fx = gusts
dd = wind direction
ppp = reduced air pressure
vv = visibility
sd = sunshine duration
rr = precipitation

Next stations